Time,TemperatureF,DewpointF,PressureIn,WindDirection,WindDirectionDegrees,WindSpeedMPH,WindSpeedGustMPH,Humidity,HourlyPrecipIn,Conditions,Clouds,dailyrainin,SoftwareType,DateUTC
2013-03-13 00:03:00,19.8,9.0,29.31,NW,315,2.0,11.0,62,0.00,,,0.00,meteohub,2013-03-13 05:03:00,
2013-03-13 00:08:00,19.6,8.8,29.31,NW,315,6.0,11.0,62,0.00,,,0.00,meteohub,2013-03-13 05:08:00,
2013-03-13 00:13:00,19.6,9.1,29.31,NW,315,6.0,11.0,63,0.00,,,0.00,meteohub,2013-03-13 05:13:00,
2013-03-13 00:18:00,19.4,9.3,29.34,North,0,4.0,11.0,64,0.00,,,0.00,meteohub,2013-03-13 05:18:00,
2013-03-13 00:23:00,19.4,9.3,29.34,North,0,4.0,11.0,64,0.00,,,0.00,meteohub,2013-03-13 05:23:00,
2013-03-13 00:29:00,19.4,9.3,29.34,NNW,338,6.0,11.0,64,0.00,,,0.00,meteohub,2013-03-13 05:29:00,
2013-03-13 00:34:00,19.2,9.1,29.34,NNE,22,6.0,11.0,64,0.00,,,0.00,meteohub,2013-03-13 05:34:00,
2013-03-13 00:39:00,19.0,9.3,29.34,North,0,5.0,10.0,65,0.00,,,0.00,meteohub,2013-03-13 05:39:00,
2013-03-13 00:44:00,19.0,9.3,29.34,NNW,338,6.0,10.0,65,0.00,,,0.00,meteohub,2013-03-13 05:44:00,
2013-03-13 00:49:00,19.0,9.3,29.34,North,0,4.0,10.0,65,0.00,,,0.00,meteohub,2013-03-13 05:49:00,
2013-03-13 00:54:00,19.0,9.3,29.34,NNW,338,3.0,10.0,65,0.00,,,0.00,meteohub,2013-03-13 05:54:00,
2013-03-13 00:59:00,18.9,9.1,29.34,North,0,4.0,10.0,65,0.00,,,0.00,meteohub,2013-03-13 05:59:00,
2013-03-13 01:04:00,18.7,9.0,29.34,NNW,338,4.0,12.0,65,0.00,,,0.00,meteohub,2013-03-13 06:04:00,
2013-03-13 01:09:00,18.7,9.0,29.34,NNW,338,4.0,12.0,65,0.00,,,0.00,meteohub,2013-03-13 06:09:00,
2013-03-13 01:15:00,18.5,9.1,29.34,NNW,338,2.0,10.0,66,0.00,,,0.00,meteohub,2013-03-13 06:15:00,
2013-03-13 01:20:00,18.5,9.1,29.34,North,0,9.0,10.0,66,0.00,,,0.00,meteohub,2013-03-13 06:20:00,
2013-03-13 01:25:00,18.3,9.0,29.34,NNW,338,6.0,10.0,66,0.00,,,0.00,meteohub,2013-03-13 06:25:00,
2013-03-13 01:30:00,18.1,8.8,29.34,WNW,292,5.0,10.0,66,0.00,,,0.00,meteohub,2013-03-13 06:30:00,
2013-03-13 01:35:00,18.1,9.1,29.34,NNW,338,3.0,10.0,67,0.00,,,0.00,meteohub,2013-03-13 06:35:00,
2013-03-13 01:40:00,18.1,9.1,29.34,NNW,338,6.0,10.0,67,0.00,,,0.00,meteohub,2013-03-13 06:40:00,
2013-03-13 01:45:00,18.0,9.0,29.34,North,0,10.0,10.0,67,0.00,,,0.00,meteohub,2013-03-13 06:45:00,
2013-03-13 01:51:00,17.8,9.0,29.36,NNW,338,6.0,10.0,68,0.00,,,0.00,meteohub,2013-03-13 06:51:00,
2013-03-13 01:56:00,17.8,9.0,29.36,WNW,292,3.0,10.0,68,0.00,,,0.00,meteohub,2013-03-13 06:56:00,
2013-03-13 02:01:00,17.8,9.3,29.36,North,0,4.0,10.0,69,0.00,,,0.00,meteohub,2013-03-13 07:01:00,
2013-03-13 02:06:00,17.6,9.1,29.36,NNW,338,8.0,10.0,69,0.00,,,0.00,meteohub,2013-03-13 07:06:00,
2013-03-13 02:11:00,17.6,9.1,29.36,NW,315,5.0,10.0,69,0.00,,,0.00,meteohub,2013-03-13 07:11:00,
2013-03-13 02:16:00,17.6,9.1,29.36,NNW,338,6.0,8.0,69,0.00,,,0.00,meteohub,2013-03-13 07:16:00,
2013-03-13 02:21:00,17.6,9.5,29.36,NNW,338,5.0,8.0,70,0.00,,,0.00,meteohub,2013-03-13 07:21:00,
2013-03-13 02:27:00,17.4,9.3,29.36,WNW,292,4.0,8.0,70,0.00,,,0.00,meteohub,2013-03-13 07:27:00,
2013-03-13 02:32:00,17.1,9.0,29.36,NNW,338,4.0,11.0,70,0.00,,,0.00,meteohub,2013-03-13 07:32:00,
2013-03-13 02:37:00,16.9,8.8,29.36,WNW,292,2.0,11.0,70,0.00,,,0.00,meteohub,2013-03-13 07:37:00,
2013-03-13 02:42:00,16.7,8.6,29.36,North,0,6.0,9.0,70,0.00,,,0.00,meteohub,2013-03-13 07:42:00,
2013-03-13 02:47:00,16.5,8.4,29.36,NNE,22,2.0,6.0,70,0.00,,,0.00,meteohub,2013-03-13 07:47:00,
2013-03-13 02:52:00,16.2,8.4,29.36,NNW,338,4.0,6.0,71,0.00,,,0.00,meteohub,2013-03-13 07:52:00,
2013-03-13 02:57:00,16.2,8.8,29.36,WNW,292,6.0,9.0,72,0.00,,,0.00,meteohub,2013-03-13 07:57:00,
2013-03-13 03:02:00,16.0,8.6,29.39,WNW,292,3.0,9.0,72,0.00,,,0.00,meteohub,2013-03-13 08:02:00,
2013-03-13 03:08:00,15.8,8.4,29.39,NW,315,6.0,7.0,72,0.00,,,0.00,meteohub,2013-03-13 08:08:00,
2013-03-13 03:13:00,15.8,8.8,29.39,NNW,338,2.0,8.0,73,0.00,,,0.00,meteohub,2013-03-13 08:13:00,
2013-03-13 03:18:00,15.6,8.6,29.39,NNW,338,4.0,8.0,73,0.00,,,0.00,meteohub,2013-03-13 08:18:00,
2013-03-13 03:23:00,15.4,8.4,29.39,NW,315,5.0,9.0,73,0.00,,,0.00,meteohub,2013-03-13 08:23:00,
2013-03-13 03:28:00,15.4,8.6,29.39,West,270,4.0,9.0,74,0.00,,,0.00,meteohub,2013-03-13 08:28:00,
2013-03-13 03:33:00,15.3,8.4,29.39,NW,315,5.0,9.0,74,0.00,,,0.00,meteohub,2013-03-13 08:33:00,
2013-03-13 03:38:00,15.1,8.2,29.39,NNW,338,5.0,6.0,74,0.00,,,0.00,meteohub,2013-03-13 08:38:00,
2013-03-13 03:43:00,14.9,8.4,29.39,WNW,292,7.0,11.0,75,0.00,,,0.00,meteohub,2013-03-13 08:43:00,
2013-03-13 03:49:00,14.7,7.9,29.39,WNW,292,6.0,11.0,74,0.00,,,0.00,meteohub,2013-03-13 08:49:00,
2013-03-13 03:54:00,14.5,8.1,29.39,North,0,4.0,11.0,75,0.00,,,0.00,meteohub,2013-03-13 08:54:00,
2013-03-13 03:59:00,14.4,7.9,29.39,NNW,338,6.0,11.0,75,0.00,,,0.00,meteohub,2013-03-13 08:59:00,
2013-03-13 04:04:00,14.2,7.7,29.36,NW,315,5.0,10.0,75,0.00,,,0.00,meteohub,2013-03-13 09:04:00,
2013-03-13 04:09:00,14.2,8.1,29.36,NW,315,3.0,10.0,76,0.00,,,0.00,meteohub,2013-03-13 09:09:00,
2013-03-13 04:14:00,14.0,7.9,29.36,NNE,22,4.0,10.0,76,0.00,,,0.00,meteohub,2013-03-13 09:14:00,
2013-03-13 04:19:00,13.8,7.7,29.39,NW,315,5.0,10.0,76,0.00,,,0.00,meteohub,2013-03-13 09:19:00,
2013-03-13 04:24:00,13.8,7.7,29.39,NNW,338,4.0,9.0,76,0.00,,,0.00,meteohub,2013-03-13 09:24:00,
2013-03-13 04:29:00,13.8,7.7,29.39,NNW,338,6.0,9.0,76,0.00,,,0.00,meteohub,2013-03-13 09:29:00,
2013-03-13 04:34:00,13.6,7.5,29.39,NW,315,8.0,9.0,76,0.00,,,0.00,meteohub,2013-03-13 09:34:00,
2013-03-13 04:39:00,13.6,7.5,29.39,NNW,338,6.0,9.0,76,0.00,,,0.00,meteohub,2013-03-13 09:39:00,
2013-03-13 04:44:00,13.5,7.3,29.39,NNW,338,8.0,9.0,76,0.00,,,0.00,meteohub,2013-03-13 09:44:00,
2013-03-13 04:50:00,13.3,7.2,29.39,NW,315,4.0,9.0,76,0.00,,,0.00,meteohub,2013-03-13 09:50:00,
2013-03-13 04:55:00,13.3,7.2,29.39,North,0,4.0,9.0,76,0.00,,,0.00,meteohub,2013-03-13 09:55:00,
2013-03-13 05:00:00,12.9,6.8,29.39,NW,315,3.0,10.0,76,0.00,,,0.00,meteohub,2013-03-13 10:00:00,
2013-03-13 05:05:00,12.9,6.8,29.39,North,0,7.0,10.0,76,0.00,,,0.00,meteohub,2013-03-13 10:05:00,
2013-03-13 05:10:00,12.9,6.8,29.39,NNW,338,4.0,6.0,76,0.00,,,0.00,meteohub,2013-03-13 10:10:00,
2013-03-13 05:15:00,12.7,6.6,29.39,NW,315,7.0,8.0,76,0.00,,,0.00,meteohub,2013-03-13 10:15:00,
2013-03-13 05:20:00,12.7,6.6,29.39,NNW,338,8.0,8.0,76,0.00,,,0.00,meteohub,2013-03-13 10:20:00,
2013-03-13 05:25:00,12.7,6.6,29.39,NNW,338,4.0,8.0,76,0.00,,,0.00,meteohub,2013-03-13 10:25:00,
2013-03-13 05:30:00,12.6,6.4,29.39,NW,315,6.0,11.0,76,0.00,,,0.00,meteohub,2013-03-13 10:30:00,
2013-03-13 05:35:00,12.6,6.4,29.39,North,0,6.0,11.0,76,0.00,,,0.00,meteohub,2013-03-13 10:35:00,
2013-03-13 05:40:00,12.6,6.4,29.39,WNW,292,3.0,11.0,76,0.00,,,0.00,meteohub,2013-03-13 10:40:00,
2013-03-13 05:45:00,12.2,6.1,29.39,NW,315,4.0,9.0,76,0.00,,,0.00,meteohub,2013-03-13 10:45:00,
2013-03-13 05:50:00,12.2,6.1,29.39,NNW,338,4.0,9.0,76,0.00,,,0.00,meteohub,2013-03-13 10:50:00,
2013-03-13 05:55:00,12.2,6.1,29.39,NNW,338,6.0,10.0,76,0.00,,,0.00,meteohub,2013-03-13 10:55:00,
2013-03-13 06:00:00,12.2,6.1,29.39,NNW,338,6.0,10.0,76,0.00,,,0.00,meteohub,2013-03-13 11:00:00,
2013-03-13 06:05:00,12.0,5.9,29.42,North,0,4.0,11.0,76,0.00,,,0.00,meteohub,2013-03-13 11:05:00,
2013-03-13 06:10:00,12.0,5.9,29.42,WNW,292,6.0,11.0,76,0.00,,,0.00,meteohub,2013-03-13 11:10:00,
2013-03-13 06:15:00,12.0,5.9,29.42,WNW,292,3.0,9.0,76,0.00,,,0.00,meteohub,2013-03-13 11:15:00,
2013-03-13 06:20:00,12.0,5.9,29.42,NW,315,4.0,9.0,76,0.00,,,0.00,meteohub,2013-03-13 11:20:00,
2013-03-13 06:25:00,12.0,5.9,29.42,NW,315,5.0,11.0,76,0.00,,,0.00,meteohub,2013-03-13 11:25:00,
2013-03-13 06:31:00,11.8,5.7,29.45,NW,315,4.0,11.0,76,0.00,,,0.00,meteohub,2013-03-13 11:31:00,
2013-03-13 06:36:00,11.8,5.7,29.45,NNW,338,8.0,11.0,76,0.00,,,0.00,meteohub,2013-03-13 11:36:00,
2013-03-13 06:41:00,11.7,5.5,29.45,NW,315,4.0,11.0,76,0.00,,,0.00,meteohub,2013-03-13 11:41:00,
2013-03-13 06:46:00,11.7,5.5,29.42,West,270,5.0,9.0,76,0.00,,,0.00,meteohub,2013-03-13 11:46:00,
2013-03-13 06:51:00,11.8,5.7,29.42,NNW,338,3.0,8.0,76,0.00,,,0.00,meteohub,2013-03-13 11:51:00,
2013-03-13 06:56:00,11.8,5.7,29.42,NNW,338,6.0,7.0,76,0.00,,,0.00,meteohub,2013-03-13 11:56:00,
2013-03-13 07:01:00,11.8,5.7,29.42,North,0,4.0,8.0,76,0.00,,,0.00,meteohub,2013-03-13 12:01:00,
2013-03-13 07:07:00,11.8,5.7,29.42,NW,315,4.0,8.0,76,0.00,,,0.00,meteohub,2013-03-13 12:07:00,
2013-03-13 07:12:00,11.8,5.7,29.42,NW,315,4.0,8.0,76,0.00,,,0.00,meteohub,2013-03-13 12:12:00,
2013-03-13 07:17:00,11.8,5.7,29.48,NW,315,4.0,8.0,76,0.00,,,0.00,meteohub,2013-03-13 12:17:00,
2013-03-13 07:22:00,11.8,5.7,29.48,North,0,3.0,8.0,76,0.00,,,0.00,meteohub,2013-03-13 12:22:00,
2013-03-13 07:27:00,11.8,5.7,29.48,North,0,3.0,8.0,76,0.00,,,0.00,meteohub,2013-03-13 12:27:00,
2013-03-13 07:32:00,11.8,5.7,29.45,NNE,22,6.0,7.0,76,0.00,,,0.00,meteohub,2013-03-13 12:32:00,
2013-03-13 07:37:00,11.7,5.5,29.45,NW,315,4.0,7.0,76,0.00,,,0.00,meteohub,2013-03-13 12:37:00,
2013-03-13 07:42:00,11.7,5.5,29.45,NNW,338,3.0,6.0,76,0.00,,,0.00,meteohub,2013-03-13 12:42:00,
2013-03-13 07:47:00,11.8,5.7,29.45,NNW,338,3.0,6.0,76,0.00,,,0.00,meteohub,2013-03-13 12:47:00,
2013-03-13 07:52:00,11.8,5.7,29.45,North,0,4.0,6.0,76,0.00,,,0.00,meteohub,2013-03-13 12:52:00,
2013-03-13 07:57:00,11.8,5.7,29.45,NW,315,2.0,6.0,76,0.00,,,0.00,meteohub,2013-03-13 12:57:00,
2013-03-13 08:02:00,12.0,5.9,29.45,NNW,338,4.0,6.0,76,0.00,,,0.00,meteohub,2013-03-13 13:02:00,
2013-03-13 08:07:00,12.2,6.1,29.45,NNE,22,1.0,6.0,76,0.00,,,0.00,meteohub,2013-03-13 13:07:00,
2013-03-13 08:12:00,12.6,6.4,29.45,NNW,338,3.0,6.0,76,0.00,,,0.00,meteohub,2013-03-13 13:12:00,
2013-03-13 08:17:00,12.9,6.8,29.45,West,270,3.0,6.0,76,0.00,,,0.00,meteohub,2013-03-13 13:17:00,
2013-03-13 08:22:00,13.3,7.2,29.45,NW,315,3.0,4.0,76,0.00,,,0.00,meteohub,2013-03-13 13:22:00,
2013-03-13 08:27:00,13.8,7.7,29.45,NNE,22,3.0,6.0,76,0.00,,,0.00,meteohub,2013-03-13 13:27:00,
2013-03-13 08:32:00,14.2,7.5,29.45,NW,315,3.0,6.0,74,0.00,,,0.00,meteohub,2013-03-13 13:32:00,
2013-03-13 08:37:00,14.4,7.3,29.45,NNW,338,1.0,4.0,73,0.00,,,0.00,meteohub,2013-03-13 13:37:00,
2013-03-13 08:42:00,14.9,7.5,29.45,NNW,338,4.0,5.0,72,0.00,,,0.00,meteohub,2013-03-13 13:42:00,
2013-03-13 08:47:00,15.4,7.7,29.45,WSW,248,0.0,5.0,71,0.00,,,0.00,meteohub,2013-03-13 13:47:00,
2013-03-13 08:52:00,15.8,7.7,29.45,WNW,292,4.0,5.0,70,0.00,,,0.00,meteohub,2013-03-13 13:52:00,
2013-03-13 08:57:00,15.8,6.8,29.45,WNW,292,3.0,4.0,67,0.00,,,0.00,meteohub,2013-03-13 13:57:00,
2013-03-13 09:02:00,16.3,7.3,29.45,West,270,2.0,4.0,67,0.00,,,0.00,meteohub,2013-03-13 14:02:00,
2013-03-13 09:07:00,16.9,7.2,29.45,West,270,3.0,4.0,65,0.00,,,0.00,meteohub,2013-03-13 14:07:00,
2013-03-13 09:12:00,17.1,6.6,29.45,WNW,292,4.0,5.0,63,0.00,,,0.00,meteohub,2013-03-13 14:12:00,
2013-03-13 09:17:00,17.6,7.2,29.48,WNW,292,2.0,6.0,63,0.00,,,0.00,meteohub,2013-03-13 14:17:00,
2013-03-13 09:23:00,18.3,7.5,29.48,NNE,22,1.0,6.0,62,0.00,,,0.00,meteohub,2013-03-13 14:23:00,
2013-03-13 09:28:00,18.5,7.0,29.48,West,270,3.0,6.0,60,0.00,,,0.00,meteohub,2013-03-13 14:28:00,
2013-03-13 09:33:00,18.5,6.3,29.48,West,270,3.0,6.0,58,0.00,,,0.00,meteohub,2013-03-13 14:33:00,
2013-03-13 09:38:00,18.3,6.4,29.48,WNW,292,5.0,6.0,59,0.00,,,0.00,meteohub,2013-03-13 14:38:00,
2013-03-13 09:43:00,18.7,6.8,29.48,WNW,292,2.0,6.0,59,0.00,,,0.00,meteohub,2013-03-13 14:43:00,
2013-03-13 09:48:00,19.4,7.5,29.48,WNW,292,6.0,6.0,59,0.00,,,0.00,meteohub,2013-03-13 14:48:00,
2013-03-13 09:53:00,20.1,7.7,29.48,WNW,292,5.0,5.0,58,0.00,,,0.00,meteohub,2013-03-13 14:53:00,
2013-03-13 09:58:00,21.0,8.6,29.48,NE,45,2.0,6.0,58,0.00,,,0.00,meteohub,2013-03-13 14:58:00,
2013-03-13 10:03:00,21.7,9.3,29.48,NNE,22,3.0,6.0,58,0.00,,,0.00,meteohub,2013-03-13 15:03:00,
2013-03-13 10:08:00,21.7,8.4,29.48,NE,45,2.0,5.0,56,0.00,,,0.00,meteohub,2013-03-13 15:08:00,
2013-03-13 10:13:00,22.1,8.8,29.48,NNE,22,4.0,4.0,56,0.00,,,0.00,meteohub,2013-03-13 15:13:00,
2013-03-13 10:19:00,22.5,8.8,29.48,NW,315,3.0,4.0,55,0.00,,,0.00,meteohub,2013-03-13 15:19:00,
2013-03-13 10:24:00,22.5,8.8,29.48,SW,225,3.0,4.0,55,0.00,,,0.00,meteohub,2013-03-13 15:24:00,
2013-03-13 10:29:00,22.5,8.4,29.48,WNW,292,5.0,6.0,54,0.00,,,0.00,meteohub,2013-03-13 15:29:00,
2013-03-13 10:34:00,22.8,8.8,29.51,NW,315,3.0,6.0,54,0.00,,,0.00,meteohub,2013-03-13 15:34:00,
2013-03-13 10:36:00,79.9,67.1,28.88,SSW,202,3.6,6.5,65,0.00,,---,0.00,VWS V14.01,2013-03-13 15:36:00,
2013-03-13 10:39:00,23.4,8.8,29.51,NW,315,3.0,6.0,53,0.00,,,0.00,meteohub,2013-03-13 15:39:00,
2013-03-13 10:44:00,24.3,9.7,29.51,WNW,292,4.0,5.0,53,0.00,,,0.00,meteohub,2013-03-13 15:44:00,
2013-03-13 10:49:00,25.0,9.9,29.51,NNE,22,3.0,5.0,52,0.00,,,0.00,meteohub,2013-03-13 15:49:00,
2013-03-13 10:54:00,25.3,9.7,29.51,WNW,292,2.0,5.0,51,0.00,,,0.00,meteohub,2013-03-13 15:54:00,
2013-03-13 10:59:00,26.1,10.0,29.51,West,270,3.0,4.0,50,0.00,,,0.00,meteohub,2013-03-13 15:59:00,
2013-03-13 11:04:00,27.9,12.0,29.51,West,270,0.0,5.0,51,0.00,,,0.00,meteohub,2013-03-13 16:04:00,
2013-03-13 11:10:00,27.5,10.9,29.51,SW,225,1.0,5.0,49,0.00,,,0.00,meteohub,2013-03-13 16:10:00,
2013-03-13 11:15:00,27.0,9.9,29.51,NW,315,3.0,5.0,48,0.00,,,0.00,meteohub,2013-03-13 16:15:00,
2013-03-13 11:20:00,28.4,11.3,29.51,WNW,292,3.0,5.0,48,0.00,,,0.00,meteohub,2013-03-13 16:20:00,
2013-03-13 11:25:00,29.7,12.4,29.51,NNW,338,0.0,4.0,48,0.00,,,0.00,meteohub,2013-03-13 16:25:00,
2013-03-13 11:30:00,29.7,11.8,29.51,West,270,4.0,4.0,47,0.00,,,0.00,meteohub,2013-03-13 16:30:00,
2013-03-13 11:35:00,31.1,13.3,29.51,ENE,68,2.0,4.0,47,0.00,,,0.00,meteohub,2013-03-13 16:35:00,
2013-03-13 11:40:00,31.5,12.6,29.51,WSW,248,4.0,4.0,45,0.00,,,0.00,meteohub,2013-03-13 16:40:00,
2013-03-13 11:45:00,31.3,12.4,29.51,West,270,3.0,4.0,45,0.00,,,0.00,meteohub,2013-03-13 16:45:00,
2013-03-13 11:51:00,31.1,11.8,29.51,SW,225,2.0,5.0,44,0.00,,,0.00,meteohub,2013-03-13 16:51:00,
2013-03-13 11:56:00,33.1,14.2,29.51,ENE,68,0.0,5.0,45,0.00,,,0.00,meteohub,2013-03-13 16:56:00,
2013-03-13 12:01:00,32.7,13.3,29.48,SW,225,2.0,5.0,44,0.00,,,0.00,meteohub,2013-03-13 17:01:00,
2013-03-13 12:06:00,33.4,14.0,29.48,SW,225,2.0,4.0,44,0.00,,,0.00,meteohub,2013-03-13 17:06:00,
2013-03-13 12:11:00,33.1,13.6,29.48,WSW,248,3.0,4.0,44,0.00,,,0.00,meteohub,2013-03-13 17:11:00,
2013-03-13 12:16:00,31.5,11.7,29.48,WSW,248,6.0,6.0,43,0.00,,,0.00,meteohub,2013-03-13 17:16:00,
2013-03-13 12:21:00,30.7,10.9,29.48,WSW,248,6.0,6.0,43,0.00,,,0.00,meteohub,2013-03-13 17:21:00,
2013-03-13 12:26:00,32.2,12.7,29.48,SW,225,3.0,6.0,44,0.00,,,0.00,meteohub,2013-03-13 17:26:00,
2013-03-13 12:32:00,31.3,11.5,29.48,SSW,202,4.0,6.0,43,0.00,,,0.00,meteohub,2013-03-13 17:32:00,
2013-03-13 12:37:00,32.0,12.0,29.48,WSW,248,5.0,6.0,43,0.00,,,0.00,meteohub,2013-03-13 17:37:00,
2013-03-13 12:42:00,31.6,11.7,29.48,SW,225,4.0,6.0,43,0.00,,,0.00,meteohub,2013-03-13 17:42:00,
2013-03-13 12:46:00,31.1,11.3,29.48,WSW,248,5.0,8.0,43,0.00,,,0.00,meteohub,2013-03-13 17:46:00,
2013-03-13 12:47:00,31.3,11.5,29.48,SW,225,3.0,8.0,43,0.00,,,0.00,meteohub,2013-03-13 17:47:00,
2013-03-13 12:57:00,31.3,11.5,29.48,SW,225,1.0,8.0,43,0.00,,,0.00,meteohub,2013-03-13 17:57:00,
2013-03-13 13:02:00,32.5,12.6,29.48,SW,225,4.0,7.0,43,0.00,,,0.00,meteohub,2013-03-13 18:02:00,
2013-03-13 13:07:00,32.2,12.2,29.48,WSW,248,3.0,6.0,43,0.00,,,0.00,meteohub,2013-03-13 18:07:00,
2013-03-13 13:12:00,31.5,11.7,29.48,SSW,202,4.0,8.0,43,0.00,,,0.00,meteohub,2013-03-13 18:12:00,
2013-03-13 13:17:00,32.0,12.0,29.48,SW,225,6.0,8.0,43,0.00,,,0.00,meteohub,2013-03-13 18:17:00,
2013-03-13 13:22:00,31.6,11.7,29.48,SSW,202,4.0,8.0,43,0.00,,,0.00,meteohub,2013-03-13 18:22:00,
2013-03-13 13:27:00,30.9,11.1,29.48,SW,225,6.0,8.0,43,0.00,,,0.00,meteohub,2013-03-13 18:27:00,
2013-03-13 13:32:00,31.6,11.7,29.48,SW,225,6.0,8.0,43,0.00,,,0.00,meteohub,2013-03-13 18:32:00,
2013-03-13 13:37:00,31.3,11.5,29.48,West,270,6.0,9.0,43,0.00,,,0.00,meteohub,2013-03-13 18:37:00,
2013-03-13 13:42:00,31.6,11.7,29.48,WSW,248,4.0,9.0,43,0.00,,,0.00,meteohub,2013-03-13 18:42:00,
2013-03-13 13:47:00,32.9,12.9,29.48,SSE,158,4.0,9.0,43,0.00,,,0.00,meteohub,2013-03-13 18:47:00,
2013-03-13 13:53:00,33.6,13.6,29.48,West,270,8.0,9.0,43,0.00,,,0.00,meteohub,2013-03-13 18:53:00,
2013-03-13 13:58:00,32.7,13.3,29.48,SSW,202,5.0,9.0,44,0.00,,,0.00,meteohub,2013-03-13 18:58:00,
2013-03-13 14:03:00,32.7,13.3,29.48,SW,225,6.0,8.0,44,0.00,,,0.00,meteohub,2013-03-13 19:03:00,
2013-03-13 14:08:00,31.1,11.8,29.48,SSW,202,6.0,9.0,44,0.00,,,0.00,meteohub,2013-03-13 19:08:00,
2013-03-13 14:13:00,31.1,12.2,29.48,WSW,248,8.0,10.0,45,0.00,,,0.00,meteohub,2013-03-13 19:13:00,
2013-03-13 14:18:00,30.9,12.0,29.48,WSW,248,6.0,10.0,45,0.00,,,0.00,meteohub,2013-03-13 19:18:00,
2013-03-13 14:23:00,31.1,12.7,29.48,WSW,248,5.0,10.0,46,0.00,,,0.00,meteohub,2013-03-13 19:23:00,
2013-03-13 14:28:00,31.8,13.5,29.48,West,270,5.0,11.0,46,0.00,,,0.00,meteohub,2013-03-13 19:28:00,
2013-03-13 14:33:00,31.5,12.6,29.45,WNW,292,6.0,11.0,45,0.00,,,0.00,meteohub,2013-03-13 19:33:00,
2013-03-13 14:38:00,31.6,12.7,29.45,SSW,202,4.0,10.0,45,0.00,,,0.00,meteohub,2013-03-13 19:38:00,
2013-03-13 14:44:00,30.9,12.0,29.45,West,270,6.0,10.0,45,0.00,,,0.00,meteohub,2013-03-13 19:44:00,
2013-03-13 14:49:00,32.0,13.1,29.45,West,270,6.0,10.0,45,0.00,,,0.00,meteohub,2013-03-13 19:49:00,
2013-03-13 14:54:00,31.6,12.7,29.45,SW,225,6.0,10.0,45,0.00,,,0.00,meteohub,2013-03-13 19:54:00,
2013-03-13 14:59:00,32.5,13.6,29.45,West,270,4.0,10.0,45,0.00,,,0.00,meteohub,2013-03-13 19:59:00,
2013-03-13 15:04:00,33.1,13.6,29.45,West,270,5.0,9.0,44,0.00,,,0.00,meteohub,2013-03-13 20:04:00,
2013-03-13 15:09:00,32.5,13.6,29.45,WSW,248,7.0,9.0,45,0.00,,,0.00,meteohub,2013-03-13 20:09:00,
2013-03-13 15:14:00,33.4,14.4,29.45,West,270,5.0,8.0,45,0.00,,,0.00,meteohub,2013-03-13 20:14:00,
2013-03-13 15:19:00,33.1,13.6,29.45,NNW,338,4.0,8.0,44,0.00,,,0.00,meteohub,2013-03-13 20:19:00,
2013-03-13 15:24:00,33.3,14.4,29.45,SW,225,6.0,8.0,45,0.00,,,0.00,meteohub,2013-03-13 20:24:00,
2013-03-13 15:29:00,32.9,12.9,29.45,WSW,248,6.0,11.0,43,0.00,,,0.00,meteohub,2013-03-13 20:29:00,
2013-03-13 15:34:00,33.3,13.8,29.45,WSW,248,4.0,11.0,44,0.00,,,0.00,meteohub,2013-03-13 20:34:00,
2013-03-13 15:40:00,32.9,12.9,29.45,SW,225,6.0,11.0,43,0.00,,,0.00,meteohub,2013-03-13 20:40:00,
2013-03-13 15:45:00,32.9,12.9,29.45,West,270,5.0,8.0,43,0.00,,,0.00,meteohub,2013-03-13 20:45:00,
2013-03-13 15:50:00,33.1,13.1,29.45,WSW,248,8.0,9.0,43,0.00,,,0.00,meteohub,2013-03-13 20:50:00,
2013-03-13 15:55:00,32.7,12.7,29.45,West,270,4.0,9.0,43,0.00,,,0.00,meteohub,2013-03-13 20:55:00,
2013-03-13 16:00:00,33.1,13.1,29.45,WNW,292,4.0,9.0,43,0.00,,,0.00,meteohub,2013-03-13 21:00:00,
2013-03-13 16:05:00,32.9,12.9,29.45,WSW,248,4.0,9.0,43,0.00,,,0.00,meteohub,2013-03-13 21:05:00,
2013-03-13 16:10:00,33.6,14.2,29.45,WSW,248,5.0,9.0,44,0.00,,,0.00,meteohub,2013-03-13 21:10:00,
2013-03-13 16:15:00,33.3,13.3,29.45,SW,225,6.0,9.0,43,0.00,,,0.00,meteohub,2013-03-13 21:15:00,
2013-03-13 16:20:00,32.5,12.6,29.45,SW,225,8.0,9.0,43,0.00,,,0.00,meteohub,2013-03-13 21:20:00,
2013-03-13 16:25:00,31.8,11.8,29.45,WSW,248,6.0,11.0,43,0.00,,,0.00,meteohub,2013-03-13 21:25:00,
2013-03-13 16:30:00,31.8,12.4,29.45,NW,315,8.0,11.0,44,0.00,,,0.00,meteohub,2013-03-13 21:30:00,
2013-03-13 16:35:00,32.4,12.9,29.45,WSW,248,9.0,11.0,44,0.00,,,0.00,meteohub,2013-03-13 21:35:00,
2013-03-13 16:40:00,31.6,12.2,29.45,SW,225,7.0,11.0,44,0.00,,,0.00,meteohub,2013-03-13 21:40:00,
2013-03-13 16:46:00,32.2,12.7,29.45,SW,225,8.0,9.0,44,0.00,,,0.00,meteohub,2013-03-13 21:46:00,
2013-03-13 16:51:00,32.7,13.8,29.45,West,270,7.0,10.0,45,0.00,,,0.00,meteohub,2013-03-13 21:51:00,
2013-03-13 16:56:00,32.0,12.6,29.45,WSW,248,8.0,10.0,44,0.00,,,0.00,meteohub,2013-03-13 21:56:00,
2013-03-13 17:01:00,31.8,12.9,29.42,WSW,248,6.0,10.0,45,0.00,,,0.00,meteohub,2013-03-13 22:01:00,
2013-03-13 17:06:00,32.0,13.1,29.42,WSW,248,3.0,9.0,45,0.00,,,0.00,meteohub,2013-03-13 22:06:00,
2013-03-13 17:11:00,31.1,12.7,29.42,SW,225,8.0,8.0,46,0.00,,,0.00,meteohub,2013-03-13 22:11:00,
2013-03-13 17:17:00,31.6,13.3,29.45,SSW,202,5.0,8.0,46,0.00,,,0.00,meteohub,2013-03-13 22:17:00,
2013-03-13 17:22:00,32.5,13.6,29.45,SSW,202,4.0,8.0,45,0.00,,,0.00,meteohub,2013-03-13 22:22:00,
2013-03-13 17:27:00,31.6,12.7,29.45,SSW,202,6.0,8.0,45,0.00,,,0.00,meteohub,2013-03-13 22:27:00,
2013-03-13 17:32:00,32.4,13.5,29.45,West,270,3.0,8.0,45,0.00,,,0.00,meteohub,2013-03-13 22:32:00,
2013-03-13 17:37:00,32.2,13.3,29.45,SW,225,4.0,8.0,45,0.00,,,0.00,meteohub,2013-03-13 22:37:00,
2013-03-13 17:42:00,32.5,13.6,29.45,SSW,202,3.0,8.0,45,0.00,,,0.00,meteohub,2013-03-13 22:42:00,
2013-03-13 17:47:00,31.3,11.8,29.45,SSW,202,6.0,7.0,44,0.00,,,0.00,meteohub,2013-03-13 22:47:00,
2013-03-13 17:52:00,31.1,11.8,29.45,SW,225,4.0,8.0,44,0.00,,,0.00,meteohub,2013-03-13 22:52:00,
2013-03-13 17:57:00,29.5,10.8,29.45,SW,225,6.0,8.0,45,0.00,,,0.00,meteohub,2013-03-13 22:57:00,
2013-03-13 18:02:00,29.5,10.8,29.45,SSW,202,5.0,7.0,45,0.00,,,0.00,meteohub,2013-03-13 23:02:00,
2013-03-13 18:07:00,29.7,11.5,29.45,SW,225,6.0,7.0,46,0.00,,,0.00,meteohub,2013-03-13 23:07:00,
2013-03-13 18:12:00,29.8,11.1,29.45,SW,225,6.0,7.0,45,0.00,,,0.00,meteohub,2013-03-13 23:12:00,
2013-03-13 18:17:00,29.5,10.8,29.45,SSW,202,3.0,7.0,45,0.00,,,0.00,meteohub,2013-03-13 23:17:00,
2013-03-13 18:23:00,28.6,10.0,29.45,WSW,248,6.0,6.0,45,0.00,,,0.00,meteohub,2013-03-13 23:23:00,
2013-03-13 18:28:00,27.9,9.9,29.45,WSW,248,7.0,7.0,46,0.00,,,0.00,meteohub,2013-03-13 23:28:00,
2013-03-13 18:33:00,27.1,9.1,29.45,SW,225,6.0,10.0,46,0.00,,,0.00,meteohub,2013-03-13 23:33:00,
2013-03-13 18:38:00,26.4,9.0,29.45,SW,225,6.0,10.0,47,0.00,,,0.00,meteohub,2013-03-13 23:38:00,
2013-03-13 18:43:00,26.1,9.1,29.45,West,270,3.0,10.0,48,0.00,,,0.00,meteohub,2013-03-13 23:43:00,
2013-03-13 18:48:00,25.5,9.0,29.45,SW,225,5.0,7.0,49,0.00,,,0.00,meteohub,2013-03-13 23:48:00,
2013-03-13 18:53:00,25.3,9.3,29.45,WSW,248,4.0,7.0,50,0.00,,,0.00,meteohub,2013-03-13 23:53:00,
2013-03-13 18:58:00,25.0,9.5,29.45,SW,225,3.0,7.0,51,0.00,,,0.00,meteohub,2013-03-13 23:58:00,
2013-03-13 19:03:00,24.8,9.7,29.45,SW,225,3.0,6.0,52,0.00,,,0.00,meteohub,2013-03-14 00:03:00,
2013-03-13 19:08:00,24.4,9.3,29.45,WSW,248,4.0,6.0,52,0.00,,,0.00,meteohub,2013-03-14 00:08:00,
2013-03-13 19:13:00,24.3,9.7,29.45,West,270,4.0,4.0,53,0.00,,,0.00,meteohub,2013-03-14 00:13:00,
2013-03-13 19:18:00,24.1,9.5,29.48,West,270,5.0,6.0,53,0.00,,,0.00,meteohub,2013-03-14 00:18:00,
2013-03-13 19:23:00,23.7,9.5,29.48,West,270,4.0,6.0,54,0.00,,,0.00,meteohub,2013-03-14 00:23:00,
2013-03-13 19:28:00,23.5,9.9,29.48,WSW,248,6.0,6.0,55,0.00,,,0.00,meteohub,2013-03-14 00:28:00,
2013-03-13 19:34:00,23.4,9.7,29.45,WSW,248,2.0,6.0,55,0.00,,,0.00,meteohub,2013-03-14 00:34:00,
2013-03-13 19:39:00,23.4,10.0,29.45,SW,225,2.0,6.0,56,0.00,,,0.00,meteohub,2013-03-14 00:39:00,
2013-03-13 19:44:00,23.2,9.9,29.45,WSW,248,3.0,6.0,56,0.00,,,0.00,meteohub,2013-03-14 00:44:00,
2013-03-13 19:49:00,23.0,10.0,29.45,WNW,292,3.0,6.0,57,0.00,,,0.00,meteohub,2013-03-14 00:49:00,
2013-03-13 19:54:00,23.0,10.0,29.45,SSW,202,2.0,5.0,57,0.00,,,0.00,meteohub,2013-03-14 00:54:00,
2013-03-13 19:59:00,22.8,9.9,29.45,WSW,248,3.0,5.0,57,0.00,,,0.00,meteohub,2013-03-14 00:59:00,
2013-03-13 20:04:00,22.8,10.2,29.45,SSW,202,3.0,4.0,58,0.00,,,0.00,meteohub,2013-03-14 01:04:00,
2013-03-13 20:09:00,22.8,10.6,29.45,SW,225,2.0,4.0,59,0.00,,,0.00,meteohub,2013-03-14 01:09:00,
2013-03-13 20:15:00,22.8,10.6,29.45,SSW,202,2.0,4.0,59,0.00,,,0.00,meteohub,2013-03-14 01:15:00,
2013-03-13 20:20:00,22.8,11.1,29.45,SW,225,2.0,4.0,60,0.00,,,0.00,meteohub,2013-03-14 01:20:00,
2013-03-13 20:25:00,22.6,10.9,29.45,SW,225,3.0,4.0,60,0.00,,,0.00,meteohub,2013-03-14 01:25:00,
2013-03-13 20:30:00,22.8,11.1,29.45,SSW,202,0.0,4.0,60,0.00,,,0.00,meteohub,2013-03-14 01:30:00,
2013-03-13 20:35:00,22.6,10.9,29.42,SW,225,2.0,4.0,60,0.00,,,0.00,meteohub,2013-03-14 01:35:00,
2013-03-13 20:40:00,22.6,10.9,29.42,SSW,202,0.0,3.0,60,0.00,,,0.00,meteohub,2013-03-14 01:40:00,
2013-03-13 20:45:00,22.6,10.9,29.39,South,180,0.0,3.0,60,0.00,,,0.00,meteohub,2013-03-14 01:45:00,
2013-03-13 20:50:00,22.6,10.9,29.39,SSE,158,0.0,3.0,60,0.00,,,0.00,meteohub,2013-03-14 01:50:00,
2013-03-13 20:55:00,22.6,10.9,29.39,SSW,202,0.0,2.0,60,0.00,,,0.00,meteohub,2013-03-14 01:55:00,
2013-03-13 21:00:00,22.6,10.9,29.39,South,180,0.0,0.0,60,0.00,,,0.00,meteohub,2013-03-14 02:00:00,
2013-03-13 21:05:00,22.5,11.1,29.42,South,180,1.0,2.0,61,0.00,,,0.00,meteohub,2013-03-14 02:05:00,
2013-03-13 21:11:00,22.5,11.1,29.42,SSW,202,0.0,2.0,61,0.00,,,0.00,meteohub,2013-03-14 02:11:00,
2013-03-13 21:16:00,22.3,10.9,29.39,South,180,0.0,2.0,61,0.00,,,0.00,meteohub,2013-03-14 02:16:00,
2013-03-13 21:21:00,22.3,10.6,29.39,South,180,0.0,1.0,60,0.00,,,0.00,meteohub,2013-03-14 02:21:00,
2013-03-13 21:26:00,22.3,10.9,29.39,South,180,0.0,0.0,61,0.00,,,0.00,meteohub,2013-03-14 02:26:00,
2013-03-13 21:32:00,22.3,11.3,29.39,SSW,202,0.0,2.0,62,0.00,,,0.00,meteohub,2013-03-14 02:32:00,
2013-03-13 21:37:00,22.3,11.3,29.39,SSE,158,0.0,2.0,62,0.00,,,0.00,meteohub,2013-03-14 02:37:00,
2013-03-13 21:42:00,22.3,11.3,29.39,SE,135,0.0,2.0,62,0.00,,,0.00,meteohub,2013-03-14 02:42:00,
2013-03-13 21:47:00,22.5,11.1,29.39,SSE,158,2.0,2.0,61,0.00,,,0.00,meteohub,2013-03-14 02:47:00,
2013-03-13 21:52:00,22.5,11.5,29.39,South,180,2.0,2.0,62,0.00,,,0.00,meteohub,2013-03-14 02:52:00,
2013-03-13 21:57:00,22.6,12.0,29.39,SSW,202,1.0,4.0,63,0.00,,,0.00,meteohub,2013-03-14 02:57:00,
2013-03-13 22:02:00,22.6,12.0,29.39,SSE,158,2.0,4.0,63,0.00,,,0.00,meteohub,2013-03-14 03:02:00,
2013-03-13 22:07:00,22.6,12.0,29.39,SSE,158,0.0,4.0,63,0.00,,,0.00,meteohub,2013-03-14 03:07:00,
2013-03-13 22:12:00,22.6,12.0,29.39,South,180,0.0,6.0,63,0.00,,,0.00,meteohub,2013-03-14 03:12:00,
2013-03-13 22:17:00,22.8,12.2,29.36,SSE,158,2.0,6.0,63,0.00,,,0.00,meteohub,2013-03-14 03:17:00,
2013-03-13 22:22:00,22.8,12.6,29.36,SSE,158,4.0,4.0,64,0.00,,,0.00,meteohub,2013-03-14 03:22:00,
2013-03-13 22:27:00,22.8,12.6,29.36,SSE,158,0.0,4.0,64,0.00,,,0.00,meteohub,2013-03-14 03:27:00,
2013-03-13 22:32:00,23.0,12.4,29.36,South,180,0.0,4.0,63,0.00,,,0.00,meteohub,2013-03-14 03:32:00,
2013-03-13 22:37:00,23.2,12.6,29.36,South,180,0.0,4.0,63,0.00,,,0.00,meteohub,2013-03-14 03:37:00,
2013-03-13 22:42:00,23.2,12.6,29.36,SSE,158,2.0,2.0,63,0.00,,,0.00,meteohub,2013-03-14 03:42:00,
2013-03-13 22:47:00,23.4,12.6,29.39,SSE,158,1.0,2.0,63,0.00,,,0.00,meteohub,2013-03-14 03:47:00,
2013-03-13 22:52:00,23.4,12.9,29.39,SSE,158,2.0,3.0,64,0.00,,,0.00,meteohub,2013-03-14 03:52:00,
2013-03-13 22:58:00,23.5,13.1,29.39,South,180,2.0,3.0,64,0.00,,,0.00,meteohub,2013-03-14 03:58:00,
2013-03-13 23:00:00,23.5,13.5,29.39,South,180,0.0,4.0,65,0.00,,,0.00,meteohub,2013-03-14 04:00:00,
2013-03-13 23:01:00,23.5,13.5,29.39,SE,135,3.0,4.0,65,0.00,,,0.00,meteohub,2013-03-14 04:01:00,
2013-03-13 23:02:00,23.5,13.5,29.39,South,180,3.0,4.0,65,0.00,,,0.00,meteohub,2013-03-14 04:02:00,
2013-03-13 23:07:00,23.5,13.5,29.39,SE,135,2.0,4.0,65,0.00,,,0.00,meteohub,2013-03-14 04:07:00,
2013-03-13 23:12:00,23.5,13.5,29.39,SE,135,1.0,4.0,65,0.00,,,0.00,meteohub,2013-03-14 04:12:00,
2013-03-13 23:17:00,23.7,13.6,29.39,South,180,3.0,5.0,65,0.00,,,0.00,meteohub,2013-03-14 04:17:00,
2013-03-13 23:22:00,23.7,14.0,29.39,South,180,2.0,5.0,66,0.00,,,0.00,meteohub,2013-03-14 04:22:00,
2013-03-13 23:28:00,23.9,14.5,29.39,South,180,1.0,5.0,67,0.00,,,0.00,meteohub,2013-03-14 04:28:00,
2013-03-13 23:33:00,23.9,14.9,29.39,South,180,3.0,5.0,68,0.00,,,0.00,meteohub,2013-03-14 04:33:00,
2013-03-13 23:38:00,24.1,15.1,29.39,SSE,158,1.0,5.0,68,0.00,,,0.00,meteohub,2013-03-14 04:38:00,
2013-03-13 23:43:00,24.1,15.1,29.39,SSE,158,2.0,6.0,68,0.00,,,0.00,meteohub,2013-03-14 04:43:00,
2013-03-13 23:48:00,24.1,15.1,29.36,South,180,3.0,6.0,68,0.00,,,0.00,meteohub,2013-03-14 04:48:00,
2013-03-13 23:53:00,24.1,15.1,29.36,SW,225,4.0,6.0,68,0.00,,,0.00,meteohub,2013-03-14 04:53:00,
2013-03-13 23:58:00,24.1,15.4,29.36,SSE,158,3.0,6.0,69,0.00,,,0.00,meteohub,2013-03-14 04:58:00,